This is the latest recevied weather packets stored in our database for station/object K6HFP. If no packets are shown the sender has not sent any weather packets the latest 10 day(s).
| Time | Temp. | Humidity | Pressure | Rain* | Wind** | Luminosity | Snow |
|---|---|---|---|---|---|---|---|
| 1778022316 | 16.11° C | 73% | 1013.5 hPa | 0 mm | - | 266 W/m² | - |
| 1778022012 | 16.11° C | 72% | 1013.7 hPa | 0 mm | - | 288 W/m² | - |
| 1778021709 | 16.11° C | 73% | 1013.8 hPa | 0 mm | - | 310 W/m² | - |
| 1778021405 | 16.11° C | 71% | 1013.6 hPa | 0 mm | - | 311 W/m² | - |
| 1778021102 | 16.11° C | 70% | 1013.8 hPa | 0 mm | - | 309 W/m² | - |
| 1778020799 | 16.11° C | 70% | 1013.9 hPa | 0 mm | - | 333 W/m² | - |
| 1778020496 | 16.11° C | 72% | 1013.9 hPa | 0 mm | - | 324 W/m² | - |
| 1778020192 | 16.11° C | 71% | 1014 hPa | 0 mm | - | 380 W/m² | - |
| 1778019889 | 16.11° C | 71% | 1014.1 hPa | 0 mm | - | 404 W/m² | - |
| 1778019584 | 15.56° C | 71% | 1014.1 hPa | 0 mm | - | 372 W/m² | - |
| 1778019282 | 15.56° C | 72% | 1014 hPa | 0 mm | - | 370 W/m² | - |
| 1778018979 | 15.56° C | 73% | 1014 hPa | 0 mm | - | 327 W/m² | - |
| 1778018676 | 15.56° C | 73% | 1014.2 hPa | 0 mm | - | 310 W/m² | - |
| 1778018374 | 15.56° C | 74% | 1014.1 hPa | 0 mm | - | 346 W/m² | - |
| 1778018072 | 15.56° C | 73% | 1014 hPa | 0 mm | - | 334 W/m² | - |
| 1778017769 | 15.56° C | 75% | 1014.1 hPa | 0 mm | - | 344 W/m² | - |
| 1778017467 | 15.56° C | 76% | 1014 hPa | 0 mm | - | 353 W/m² | - |
| 1778017164 | 15.56° C | 75% | 1014 hPa | 0 mm | - | 326 W/m² | - |
| 1778016861 | 15.56° C | 75% | 1014.2 hPa | 0 mm | - | 317 W/m² | - |
| 1778016557 | 15° C | 75% | 1014.1 hPa | 0 mm | - | 307 W/m² | - |
| 1778016254 | 15° C | 76% | 1014.1 hPa | 0 mm | - | 273 W/m² | - |
| 1778015951 | 15° C | 76% | 1014.2 hPa | 0 mm | - | 218 W/m² | - |
| 1778015649 | 15° C | 76% | 1014.4 hPa | 0 mm | - | 181 W/m² | - |
| 1778015344 | 15° C | 76% | 1014.2 hPa | 0 mm | - | 165 W/m² | - |
| 1778015042 | 15° C | 75% | 1014.1 hPa | 0 mm | - | 165 W/m² | - |
* Rain latest hour (hover to see other rain measurements)
** Current wind speed in m/s (hover to see current wind gust speed)